SCP
1 0 0 0 0 0 1 1 1 1 1 0 0 0 0 0 0 0 0 0 0 0 0 0 0 0 0 0 0 0 0 0 0 0 0 0 0 0 0 0 0 0 0
0 1 1 1 0 0 1 1 1 1 1 0 0 0 0 0 0 0 0 0 0 0 0 0 -0 0 0 0 0 0 0 0 0 0 0 0 0 0 0 0 0 0 0
1 0 1 2 1 2 2 3 0 0 0 0 0 0 0 0 0 0 0 0 0 0 0 -0 -0 0 0 0 0 0 0 0 0 0 0 0 0 0 0 0 0 0 0
0 0 1 1 1 2 1 0 0 0 0 0 0 0 0 0 0 0 0 0 0 0 -0 -0 -0 -0 0 0 0 0 0 0 0 0 0 0 0 0 0 0 0 0 0
0 0 0 0 0 1 1 1 1 1 1 0 0 0 0 0 0 0 0 0 0 0 -0 -0 0 0 0 0 0 0 0 0 0 0 0 0 0 0 0 0 0 0 0
0 0 0 0 0 0 0 0 0 0 0 0 0 0 0 0 0 0 0 0 0 -0 -0 -0 0 0 0 0 0 0 0 0 0 0 0 0 0 0 0 0 0 0 0
0 0 0 0 0 0 0 0 0 0 0 0 0 0 0 0 0 0 0 0 0 0 0 0 0 0 0 0 0 0 0 0 0 0 0 0 0 0 0 0 0 0 0
0 0 0 0 0 0 0 0 0 0 0 0 0 0 0 0 0 0 0 0 0 0 0 0 0 0 0 0 0 0 0 0 0 0 0 0 0 0 0 0 0 0 0
0 0 0 0 0 0 0 0 0 0 0 0 0 0 0 0 0 0 0 0 0 0 0 0 0 0 0 0 0 0 0 0 0 0 0 0 0 0 0 0 0 0 0
-0 0 0 0 0 0 0 0 1 0 0 0 0 0 0 0 0 0 0 0 0 0 0 0 0 0 0 0 0 0 0 0 0 0 0 0 0 0 0 0 0 0 0
0 1 0 0 0 0 0 1 1 1 1 1 1 0 0 0 0 0 0 0 0 0 0 0 0 0 0 0 0 0 0 0 0 0 0 0 0 0 0 0 0 0 0
1 0 0 0 0 0 1 2 2 1 1 1 1 0 1 0 0 0 0 0 0 0 0 0 0 0 0 0 0 0 0 0 0 0 0 0 0 0 0 0 0 0 0
0 0 0 0 0 0 0 0 1 2 2 1 0 1 1 0 0 0 0 0 0 0 0 0 0 0 0 0 0 0 0 0 0 0 0 0 0 0 0 0 0 0 0
0 0 0 0 0 0 0 0 0 1 3 1 1 1 0 0 0 0 0 0 0 0 0 0 0 0 0 0 0 0 0 0 0 0 0 0 0 0 0 0 0 0 -0
0 0 0 0 0 0 0 0 0 0 0 2 1 1 0 0 0 0 0 0 0 0 0 0 0 0 0 0 0 0 0 0 0 0 0 0 0 0 0 0 0 0 0
0 0 0 0 0 0 0 0 0 0 0 0 1 1 1 1 1 0 0 0 0 0 0 0 0 0 0 0 0 0 0 0 0 0 0 0 0 0 0 0 0 0 0
0 0 0 0 0 0 0 0 0 0 0 0 1 1 0 1 1 1 0 0 0 0 0 0 0 0 0 0 0 0 0 0 0 0 0 0 0 0 0 0 0 0 0
0 0 0 0 0 0 0 0 0 0 0 0 0 0 0 0 0 0 0 0 0 0 0 0 0 0 0 0 0 0 0 0 0 0 0 0 0 0 0 0 0 0 0
0 0 0 0 0 0 0 0 0 0 0 0 0 0 0 0 0 0 0 0 0 0 0 0 0 0 0 0 0 0 0 0 0 0 0 0 0 0 0 0 0 0 0
0 0 -0 0 0 0 0 0 0 0 0 0 0 0 0 0 0 0 0 0 0 0 0 0 0 0 0 0 0 0 0 0 0 0 0 0 0 0 0 0 0 0 0
0 0 0 0 0 0 0 0 0 0 0 0 0 0 0 0 0 0 0 0 0 0 0 0 0 0 0 0 0 0 0 0 0 0 0 0 0 0 0 0 0 0 0
0 0 0 0 0 0 0 0 0 0 0 0 0 0 0 0 0 0 0 0 0 0 0 0 0 0 0 0 0 0 0 0 0 0 0 0 0 0 0 0 0 0 0
0 0 0 0 0 0 0 0 0 0 0 0 0 0 0 0 0 0 0 0 0 0 0 0 0 0 0 0 0 0 0 0 0 0 0 0 0 0 0 0 0 0 0
0 0 0 0 0 0 0 0 0 0 0 0 0 0 0 0 0 0 0 0 0 0 0 0 0 0 0 0 0 0 0 0 0 0 0 -0 -0 0 0 0 0 0 0
0 0 0 0 0 0 0 0 0 0 0 0 0 0 0 0 0 0 0 0 0 0 0 0 0 0 0 0 0 0 0 0 0 0 0 -0 0 0 0 0 0 0 0
0 0 0 0 0 0 0 0 0 0 0 0 0 0 0 0 0 0 0 0 0 0 0 0 0 0 0 0 0 0 0 0 0 0 0 0 0 0 0 0 0 0 0
Wind_Speed_500mb
44 43 36 47 39 38 40 35 40 36 36 32 35 36 33 23 20 19 27 25 26 20 23 18 8 13 15 12 13 16 20 17 22 13 9 17 23 20 21 12 9 13 20
30 22 20 34 32 33 28 24 26 34 37 32 33 34 35 31 26 30 26 32 33 31 19 8 4 9 16 11 13 18 16 11 9 11 15 12 17 22 25 22 12 17 16
20 14 17 32 34 34 28 18 33 35 37 33 38 33 28 24 26 34 33 27 32 34 24 16 7 13 15 14 6 1 16 16 8 5 9 3 2 20 10 24 28 20 17
15 13 12 11 29 23 18 31 28 22 26 27 30 24 27 25 26 24 27 20 23 31 27 23 15 12 17 16 6 7 12 19 14 7 6 5 11 7 2 25 27 29 21
22 9 5 8 11 23 25 19 21 23 20 22 23 21 14 20 19 27 30 20 19 24 30 26 21 11 20 17 15 13 10 17 21 5 3 12 4 7 12 14 12 21 30
8 11 5 2 8 12 14 12 14 16 12 12 13 13 16 17 23 27 25 20 19 21 24 25 19 15 18 15 16 19 17 21 19 23 18 13 9 2 3 4 12 20 19
15 18 19 15 6 4 5 5 3 8 13 14 10 12 17 25 30 27 24 24 22 19 22 25 24 18 17 19 15 12 16 15 26 24 28 27 14 3 5 10 18 18 13
28 21 19 18 16 10 8 7 8 5 2 4 12 15 16 22 25 21 25 21 25 19 19 24 27 25 21 21 18 14 15 13 15 23 22 22 23 25 17 9 9 24 19
45 30 23 24 19 10 5 0 1 2 8 8 10 13 16 23 20 18 21 18 18 23 27 21 22 26 26 20 17 16 18 18 17 15 11 25 28 28 26 25 17 20 23
47 38 29 32 21 14 14 15 13 8 7 10 12 12 18 18 18 19 23 21 23 27 33 35 29 28 28 24 25 20 25 25 24 24 23 22 35 29 26 21 16 21 15
59 49 35 30 29 17 33 28 16 6 9 17 13 15 17 21 19 21 27 28 30 34 37 42 37 31 31 33 31 28 31 30 28 28 23 23 27 37 39 38 29 20 17
46 33 34 30 23 14 41 19 11 10 17 17 11 16 19 23 25 26 24 25 27 32 39 46 41 39 36 35 36 36 34 38 36 29 26 30 39 35 19 30 25 23 26
41 38 51 37 37 30 40 24 9 1 16 19 16 13 12 14 19 19 19 19 22 25 24 39 51 44 42 43 45 43 39 40 41 37 32 36 41 36 33 30 31 26 32
12 26 45 44 33 29 25 17 14 13 7 14 20 19 12 13 18 15 13 17 14 18 21 28 38 46 49 50 51 52 49 44 46 45 43 45 42 47 41 36 36 34 33
16 3 39 38 29 23 20 14 8 13 11 5 14 16 17 18 18 19 17 16 17 19 22 26 34 43 49 51 55 55 58 62 59 50 49 48 46 43 46 35 35 29 37
17 14 37 39 35 30 18 15 13 7 5 7 7 15 20 15 24 20 17 22 23 23 27 28 32 41 43 50 55 59 59 65 67 53 55 52 45 48 39 45 29 33 34
20 24 31 35 34 22 15 12 12 10 2 4 6 11 14 8 15 18 21 25 25 26 22 21 26 30 36 44 51 54 60 67 63 60 59 55 46 41 32 32 40 29 28
44 41 32 15 21 9 12 14 11 13 7 11 5 5 9 11 11 12 16 21 23 26 22 25 31 35 36 42 47 51 54 57 61 58 59 48 37 32 30 29 33 35 33
15 12 7 19 13 7 11 15 8 12 16 9 11 11 13 15 15 17 20 17 21 28 27 30 28 35 34 33 34 37 43 49 58 57 48 39 29 28 33 31 36 32 31
20 16 15 12 17 17 17 15 12 7 16 13 8 10 17 23 20 20 27 30 35 35 31 30 32 31 38 36 33 33 45 52 56 50 38 27 25 24 23 30 32 33 32
17 10 4 7 18 16 21 22 16 20 27 26 17 12 15 22 28 27 31 36 38 31 29 29 35 35 38 35 30 31 31 38 49 34 28 20 21 21 25 29 28 26 29
30 22 17 14 14 19 21 21 21 18 13 16 23 30 36 28 32 35 36 38 33 35 30 35 39 41 38 37 31 29 22 26 32 25 21 26 25 21 22 23 23 27 31
26 24 27 28 28 37 32 43 46 27 26 17 34 52 44 44 39 42 42 43 42 44 41 40 43 43 38 33 29 25 19 27 29 30 26 24 25 26 27 25 22 24 25
20 20 21 20 22 29 23 28 28 31 32 22 36 44 49 42 44 49 46 35 39 41 43 52 48 42 41 34 23 22 26 31 33 34 32 29 25 22 20 21 22 25 23
19 22 26 27 31 35 32 30 30 31 34 41 41 45 45 41 43 45 39 44 52 44 42 50 44 43 41 32 23 24 31 35 34 22 26 27 27 23 25 31 35 30 29
34 39 41 40 37 34 37 37 38 39 41 41 43 50 50 49 51 56 51 50 48 52 51 53 48 38 36 29 21 25 26 27 23 18 18 22 21 24 27 29 20 21 23
Wind_Direction_500mb
148 148 173 183 185 184 192 188 194 206 220 223 222 224 232 239 262 266 252 239 230 234 211 202 91 192 212 205 221 217 236 246 233 253 216 224 250 267 247 252 237 249 309
119 120 161 185 196 195 189 185 206 220 228 235 235 236 239 256 272 283 272 253 240 253 219 308 286 251 227 239 243 253 232 178 197 300 270 277 282 260 237 221 220 261 258
115 133 144 182 198 197 192 200 238 222 226 235 252 253 262 259 271 290 284 255 239 253 236 274 220 262 248 243 249 13 215 204 176 238 327 247 93 342 242 223 217 250 255
136 170 197 161 185 203 196 166 208 221 231 250 266 270 281 262 277 303 305 267 239 250 248 267 270 261 266 247 276 279 201 210 195 195 242 323 316 338 59 221 232 268 262
104 112 133 145 182 184 195 210 217 219 242 256 262 268 254 271 289 307 311 280 232 244 258 254 228 272 261 254 272 256 214 217 198 236 215 188 231 348 270 313 353 275 266
172 180 138 113 165 189 207 225 232 251 223 197 237 276 252 282 280 300 301 274 261 254 241 236 244 251 266 256 257 245 247 225 215 210 214 206 192 229 144 11 353 346 9
154 133 134 159 127 153 195 180 187 205 214 217 244 293 286 277 284 287 305 277 278 261 243 239 250 258 261 257 253 233 230 225 232 236 234 231 222 219 322 10 355 350 326
170 162 142 147 136 118 155 149 138 167 181 268 269 280 300 302 295 297 310 284 272 277 253 261 264 254 247 248 249 242 235 245 244 245 242 223 232 247 227 232 321 319 312
174 169 177 181 174 159 137 205 119 216 263 267 245 266 282 294 305 304 294 306 282 271 261 266 261 254 246 244 248 239 242 243 237 245 250 216 243 230 230 214 218 275 291
177 175 169 186 182 193 204 199 214 251 264 245 254 260 273 266 281 288 278 279 286 277 268 262 255 255 248 250 258 250 258 243 256 255 252 256 231 227 226 207 251 268 276
169 170 184 192 199 202 205 193 203 253 267 230 257 257 252 252 257 268 268 272 271 269 252 261 253 255 249 252 250 252 247 261 251 260 260 248 233 229 241 263 260 277 289
175 187 192 177 181 179 188 178 175 278 278 249 258 258 241 239 248 265 263 263 265 259 260 248 248 244 250 247 252 254 257 256 255 265 259 240 247 259 255 255 280 275 304
191 204 198 180 165 149 132 135 101 206 236 272 292 295 283 273 259 280 283 263 259 260 255 243 244 247 250 252 253 260 258 257 258 264 258 243 239 254 263 261 271 270 285
173 197 156 161 160 163 175 175 164 90 188 276 290 284 283 297 268 281 285 309 305 280 262 254 252 248 251 253 256 258 256 253 257 264 254 249 253 253 278 256 263 267 284
27 141 158 153 150 148 167 198 199 228 240 260 276 296 300 299 293 273 288 300 295 284 273 260 252 251 254 258 259 255 252 253 260 263 256 253 252 255 278 259 259 272 279
28 129 154 150 143 131 136 188 187 175 356 358 282 287 300 284 286 288 286 292 290 291 284 273 269 262 261 263 265 260 254 253 256 263 256 252 258 271 281 252 265 275 285
54 142 157 162 162 158 177 199 212 206 91 192 244 331 353 286 270 287 300 300 297 289 290 287 283 285 278 274 274 269 263 260 266 266 253 251 266 271 270 253 260 271 275
105 116 114 87 137 192 232 200 198 195 194 201 156 60 11 2 347 313 295 296 295 299 298 290 282 290 291 288 281 273 267 265 262 259 254 256 262 270 245 253 264 269 277
82 124 291 277 261 220 215 193 182 221 218 225 243 262 274 290 295 308 313 318 306 301 293 290 299 302 302 281 278 274 270 264 265 257 252 253 260 229 235 250 263 276 284
24 36 48 208 212 231 271 228 212 290 239 226 234 261 296 315 316 292 304 313 314 303 297 294 299 304 303 302 289 273 267 268 259 250 243 245 236 232 245 264 270 276 281
93 64 10 234 231 252 285 301 276 289 280 277 258 272 293 301 305 302 297 306 304 298 297 306 297 303 304 294 288 282 276 268 251 231 228 214 228 252 268 266 257 252 280
8 341 300 272 297 279 280 259 248 240 236 270 285 297 304 288 284 289 288 294 296 299 280 317 319 308 303 296 291 285 266 254 225 224 215 213 230 261 256 254 261 268 276
355 4 13 358 306 305 318 282 257 272 230 296 293 299 297 293 289 292 292 293 286 293 284 296 307 316 303 291 286 274 233 228 221 206 216 211 242 260 261 265 268 258 258
338 349 357 350 340 343 333 335 336 317 303 275 284 302 299 296 307 299 301 295 296 287 283 292 299 309 302 291 280 259 208 213 222 217 220 233 243 261 257 261 255 256 268
327 330 330 329 329 324 317 314 316 313 300 294 292 284 287 291 297 297 297 298 302 298 293 290 286 298 299 291 265 242 215 207 211 224 233 228 249 253 274 292 290 279 271
314 312 308 308 310 310 310 318 317 310 306 307 313 297 288 287 286 290 296 298 296 292 292 285 283 289 287 270 239 219 204 189 184 210 234 242 248 260 295 299 281 259 262
Wind_Speed_850mb
44 43 36 47 39 38 40 35 40 36 36 32 35 36 33 23 20 19 27 25 26 20 23 18 8 13 15 12 13 16 20 17 22 13 9 17 23 20 21 12 9 13 20
30 22 20 34 32 33 28 24 26 34 37 32 33 34 35 31 26 30 26 32 33 31 19 8 4 9 16 11 13 18 16 11 9 11 15 12 17 22 25 22 12 17 16
20 14 17 32 34 34 28 18 33 35 37 33 38 33 28 24 26 34 33 27 32 34 24 16 7 13 15 14 6 1 16 16 8 5 9 3 2 20 10 24 28 20 17
15 13 12 11 29 23 18 31 28 22 26 27 30 24 27 25 26 24 27 20 23 31 27 23 15 12 17 16 6 7 12 19 14 7 6 5 11 7 2 25 27 29 21
22 9 5 8 11 23 25 19 21 23 20 22 23 21 14 20 19 27 30 20 19 24 30 26 21 11 20 17 15 13 10 17 21 5 3 12 4 7 12 14 12 21 30
8 11 5 2 8 12 14 12 14 16 12 12 13 13 16 17 23 27 25 20 19 21 24 25 19 15 18 15 16 19 17 21 19 23 18 13 9 2 3 4 12 20 19
15 18 19 15 6 4 5 5 3 8 13 14 10 12 17 25 30 27 24 24 22 19 22 25 24 18 17 19 15 12 16 15 26 24 28 27 14 3 5 10 18 18 13
28 21 19 18 16 10 8 7 8 5 2 4 12 15 16 22 25 21 25 21 25 19 19 24 27 25 21 21 18 14 15 13 15 23 22 22 23 25 17 9 9 24 19
45 30 23 24 19 10 5 0 1 2 8 8 10 13 16 23 20 18 21 18 18 23 27 21 22 26 26 20 17 16 18 18 17 15 11 25 28 28 26 25 17 20 23
47 38 29 32 21 14 14 15 13 8 7 10 12 12 18 18 18 19 23 21 23 27 33 35 29 28 28 24 25 20 25 25 24 24 23 22 35 29 26 21 16 21 15
59 49 35 30 29 17 33 28 16 6 9 17 13 15 17 21 19 21 27 28 30 34 37 42 37 31 31 33 31 28 31 30 28 28 23 23 27 37 39 38 29 20 17
46 33 34 30 23 14 41 19 11 10 17 17 11 16 19 23 25 26 24 25 27 32 39 46 41 39 36 35 36 36 34 38 36 29 26 30 39 35 19 30 25 23 26
41 38 51 37 37 30 40 24 9 1 16 19 16 13 12 14 19 19 19 19 22 25 24 39 51 44 42 43 45 43 39 40 41 37 32 36 41 36 33 30 31 26 32
12 26 45 44 33 29 25 17 14 13 7 14 20 19 12 13 18 15 13 17 14 18 21 28 38 46 49 50 51 52 49 44 46 45 43 45 42 47 41 36 36 34 33
16 3 39 38 29 23 20 14 8 13 11 5 14 16 17 18 18 19 17 16 17 19 22 26 34 43 49 51 55 55 58 62 59 50 49 48 46 43 46 35 35 29 37
17 14 37 39 35 30 18 15 13 7 5 7 7 15 20 15 24 20 17 22 23 23 27 28 32 41 43 50 55 59 59 65 67 53 55 52 45 48 39 45 29 33 34
20 24 31 35 34 22 15 12 12 10 2 4 6 11 14 8 15 18 21 25 25 26 22 21 26 30 36 44 51 54 60 67 63 60 59 55 46 41 32 32 40 29 28
44 41 32 15 21 9 12 14 11 13 7 11 5 5 9 11 11 12 16 21 23 26 22 25 31 35 36 42 47 51 54 57 61 58 59 48 37 32 30 29 33 35 33
15 12 7 19 13 7 11 15 8 12 16 9 11 11 13 15 15 17 20 17 21 28 27 30 28 35 34 33 34 37 43 49 58 57 48 39 29 28 33 31 36 32 31
20 16 15 12 17 17 17 15 12 7 16 13 8 10 17 23 20 20 27 30 35 35 31 30 32 31 38 36 33 33 45 52 56 50 38 27 25 24 23 30 32 33 32
17 10 4 7 18 16 21 22 16 20 27 26 17 12 15 22 28 27 31 36 38 31 29 29 35 35 38 35 30 31 31 38 49 34 28 20 21 21 25 29 28 26 29
30 22 17 14 14 19 21 21 21 18 13 16 23 30 36 28 32 35 36 38 33 35 30 35 39 41 38 37 31 29 22 26 32 25 21 26 25 21 22 23 23 27 31
26 24 27 28 28 37 32 43 46 27 26 17 34 52 44 44 39 42 42 43 42 44 41 40 43 43 38 33 29 25 19 27 29 30 26 24 25 26 27 25 22 24 25
20 20 21 20 22 29 23 28 28 31 32 22 36 44 49 42 44 49 46 35 39 41 43 52 48 42 41 34 23 22 26 31 33 34 32 29 25 22 20 21 22 25 23
19 22 26 27 31 35 32 30 30 31 34 41 41 45 45 41 43 45 39 44 52 44 42 50 44 43 41 32 23 24 31 35 34 22 26 27 27 23 25 31 35 30 29
34 39 41 40 37 34 37 37 38 39 41 41 43 50 50 49 51 56 51 50 48 52 51 53 48 38 36 29 21 25 26 27 23 18 18 22 21 24 27 29 20 21 23
Wind_Direction_850mb
148 148 173 183 185 184 192 188 194 206 220 223 222 224 232 239 262 266 252 239 230 234 211 202 91 192 212 205 221 217 236 246 233 253 216 224 250 267 247 252 237 249 309
119 120 161 185 196 195 189 185 206 220 228 235 235 236 239 256 272 283 272 253 240 253 219 308 286 251 227 239 243 253 232 178 197 300 270 277 282 260 237 221 220 261 258
115 133 144 182 198 197 192 200 238 222 226 235 252 253 262 259 271 290 284 255 239 253 236 274 220 262 248 243 249 13 215 204 176 238 327 247 93 342 242 223 217 250 255
136 170 197 161 185 203 196 166 208 221 231 250 266 270 281 262 277 303 305 267 239 250 248 267 270 261 266 247 276 279 201 210 195 195 242 323 316 338 59 221 232 268 262
104 112 133 145 182 184 195 210 217 219 242 256 262 268 254 271 289 307 311 280 232 244 258 254 228 272 261 254 272 256 214 217 198 236 215 188 231 348 270 313 353 275 266
172 180 138 113 165 189 207 225 232 251 223 197 237 276 252 282 280 300 301 274 261 254 241 236 244 251 266 256 257 245 247 225 215 210 214 206 192 229 144 11 353 346 9
154 133 134 159 127 153 195 180 187 205 214 217 244 293 286 277 284 287 305 277 278 261 243 239 250 258 261 257 253 233 230 225 232 236 234 231 222 219 322 10 355 350 326
170 162 142 147 136 118 155 149 138 167 181 268 269 280 300 302 295 297 310 284 272 277 253 261 264 254 247 248 249 242 235 245 244 245 242 223 232 247 227 232 321 319 312
174 169 177 181 174 159 137 205 119 216 263 267 245 266 282 294 305 304 294 306 282 271 261 266 261 254 246 244 248 239 242 243 237 245 250 216 243 230 230 214 218 275 291
177 175 169 186 182 193 204 199 214 251 264 245 254 260 273 266 281 288 278 279 286 277 268 262 255 255 248 250 258 250 258 243 256 255 252 256 231 227 226 207 251 268 276
169 170 184 192 199 202 205 193 203 253 267 230 257 257 252 252 257 268 268 272 271 269 252 261 253 255 249 252 250 252 247 261 251 260 260 248 233 229 241 263 260 277 289
175 187 192 177 181 179 188 178 175 278 278 249 258 258 241 239 248 265 263 263 265 259 260 248 248 244 250 247 252 254 257 256 255 265 259 240 247 259 255 255 280 275 304
191 204 198 180 165 149 132 135 101 206 236 272 292 295 283 273 259 280 283 263 259 260 255 243 244 247 250 252 253 260 258 257 258 264 258 243 239 254 263 261 271 270 285
173 197 156 161 160 163 175 175 164 90 188 276 290 284 283 297 268 281 285 309 305 280 262 254 252 248 251 253 256 258 256 253 257 264 254 249 253 253 278 256 263 267 284
27 141 158 153 150 148 167 198 199 228 240 260 276 296 300 299 293 273 288 300 295 284 273 260 252 251 254 258 259 255 252 253 260 263 256 253 252 255 278 259 259 272 279
28 129 154 150 143 131 136 188 187 175 356 358 282 287 300 284 286 288 286 292 290 291 284 273 269 262 261 263 265 260 254 253 256 263 256 252 258 271 281 252 265 275 285
54 142 157 162 162 158 177 199 212 206 91 192 244 331 353 286 270 287 300 300 297 289 290 287 283 285 278 274 274 269 263 260 266 266 253 251 266 271 270 253 260 271 275
105 116 114 87 137 192 232 200 198 195 194 201 156 60 11 2 347 313 295 296 295 299 298 290 282 290 291 288 281 273 267 265 262 259 254 256 262 270 245 253 264 269 277
82 124 291 277 261 220 215 193 182 221 218 225 243 262 274 290 295 308 313 318 306 301 293 290 299 302 302 281 278 274 270 264 265 257 252 253 260 229 235 250 263 276 284
24 36 48 208 212 231 271 228 212 290 239 226 234 261 296 315 316 292 304 313 314 303 297 294 299 304 303 302 289 273 267 268 259 250 243 245 236 232 245 264 270 276 281
93 64 10 234 231 252 285 301 276 289 280 277 258 272 293 301 305 302 297 306 304 298 297 306 297 303 304 294 288 282 276 268 251 231 228 214 228 252 268 266 257 252 280
8 341 300 272 297 279 280 259 248 240 236 270 285 297 304 288 284 289 288 294 296 299 280 317 319 308 303 296 291 285 266 254 225 224 215 213 230 261 256 254 261 268 276
355 4 13 358 306 305 318 282 257 272 230 296 293 299 297 293 289 292 292 293 286 293 284 296 307 316 303 291 286 274 233 228 221 206 216 211 242 260 261 265 268 258 258
338 349 357 350 340 343 333 335 336 317 303 275 284 302 299 296 307 299 301 295 296 287 283 292 299 309 302 291 280 259 208 213 222 217 220 233 243 261 257 261 255 256 268
327 330 330 329 329 324 317 314 316 313 300 294 292 284 287 291 297 297 297 298 302 298 293 290 286 298 299 291 265 242 215 207 211 224 233 228 249 253 274 292 290 279 271
314 312 308 308 310 310 310 318 317 310 306 307 313 297 288 287 286 290 296 298 296 292 292 285 283 289 287 270 239 219 204 189 184 210 234 242 248 260 295 299 281 259 262